Retour au catalogue

BREEZE-M DEB

ActifHEO
NORAD 38589·DEBRIS·🇷🇺 Russia

Lancé Mar 14, 2008 depuis Baikonur Cosmodrome

Loading…

Prochains Passages (prochaines 24 heures)

TLE

FraisSource: Space-Track

Époque: Sep 7, 2026, 09:05 UTC

1 38589U 08011AL  26250.37890667 -.00000050  00000-0  00000-0 0  9990
2 38589  48.0410 145.0097 6310175 159.3638 246.1070  2.95958571  5248

Suivez BREEZE-M DEB en temps réel avec AllMySat

Download on the App Store